SAS1778 EKVG-EKCH

Flight info

Callsign SAS1778
Flight time 1h 40m
Altitude 35000
Route ODEVA DCT GUNPA/N0424F350 DCT TESPI
Aircraft A320/M-SDE3FGHIJ1RWXYZ/ALB1

Departure

Time 2026-04-25 18:05
Airport Vágar Airport (EKVG)

Arrival

Time 2026-04-25 19:46
Airport Copenhagen Kastrup Airport (EKCH)
Time Latitude Longitude Altitude Speed Heading
2026-04-25 17:41 62.06687 -7.27951 289 ft 0 kts 27°
2026-04-25 17:58 62.06689 -7.27948 294 ft 4 kts 27°
2026-04-25 17:58 62.06671 -7.27965 295 ft 4 kts
2026-04-25 17:59 62.06649 -7.27958 293 ft 4 kts 311°
2026-04-25 17:59 62.06641 -7.27930 291 ft 1 kts 285°
2026-04-25 17:59 62.06640 -7.27925 291 ft 0 kts 285°
2026-04-25 18:01 62.06644 -7.27952 289 ft 4 kts 285°
2026-04-25 18:02 62.06651 -7.28026 291 ft 6 kts 275°
2026-04-25 18:02 62.06616 -7.28081 291 ft 8 kts 182°
2026-04-25 18:02 62.06546 -7.28102 289 ft 13 kts 198°
2026-04-25 18:02 62.06489 -7.28243 285 ft 16 kts 285°
2026-04-25 18:03 62.06550 -7.28490 286 ft 21 kts 297°
2026-04-25 18:03 62.06624 -7.28789 284 ft 24 kts 298°
2026-04-25 18:03 62.06685 -7.29043 278 ft 14 kts 296°
2026-04-25 18:03 62.06712 -7.29213 275 ft 13 kts 301°
2026-04-25 18:04 62.06730 -7.29212 275 ft 1 kts 116°
2026-04-25 18:04 62.06718 -7.29168 278 ft 4 kts 119°
2026-04-25 18:04 62.06704 -7.29108 280 ft 17 kts 117°
2026-04-25 18:04 62.06523 -7.28377 283 ft 90 kts 118°
2026-04-25 18:05 62.06143 -7.26851 297 ft 140 kts 118°
2026-04-25 18:05 62.05668 -7.25001 854 ft 143 kts 120°
2026-04-25 18:05 62.05139 -7.23214 1481 ft 144 kts 135°
2026-04-25 18:05 62.04254 -7.22114 1801 ft 158 kts 166°
2026-04-25 18:06 62.03122 -7.22245 2321 ft 168 kts 197°
2026-04-25 18:06 62.02003 -7.23126 2751 ft 179 kts 192°
2026-04-25 18:06 62.00705 -7.23628 2996 ft 201 kts 181°
2026-04-25 18:06 61.99228 -7.23514 3342 ft 224 kts 168°
2026-04-25 18:07 61.97707 -7.22619 3970 ft 235 kts 156°
2026-04-25 18:07 61.96252 -7.20891 4732 ft 245 kts 143°
2026-04-25 18:07 61.95004 -7.18333 5466 ft 256 kts 128°
2026-04-25 18:07 61.94085 -7.15024 6209 ft 266 kts 112°
2026-04-25 18:08 61.93608 -7.11203 7020 ft 271 kts 97°
2026-04-25 18:08 61.93358 -7.07142 7666 ft 283 kts 97°
2026-04-25 18:08 61.93100 -7.02943 8434 ft 289 kts 97°
2026-04-25 18:08 61.92837 -6.98679 9243 ft 294 kts 96°
2026-04-25 18:09 61.92567 -6.94342 10053 ft 299 kts 96°
2026-04-25 18:09 61.92289 -6.89907 10609 ft 312 kts 97°
2026-04-25 18:09 61.91990 -6.85167 10837 ft 335 kts 97°
2026-04-25 18:09 61.91885 -6.83500 10974 ft 339 kts 97°
2026-04-25 18:10 61.91347 -6.75121 12024 ft 349 kts 97°
2026-04-25 18:10 61.91007 -6.69986 12723 ft 353 kts 97°
2026-04-25 18:10 61.90662 -6.64802 13426 ft 357 kts 97°
2026-04-25 18:10 61.90282 -6.59570 14119 ft 361 kts 102°
2026-04-25 18:11 61.89715 -6.54355 14756 ft 365 kts 103°
2026-04-25 18:11 61.89135 -6.49093 15361 ft 368 kts 103°
2026-04-25 18:11 61.88551 -6.43781 15978 ft 371 kts 103°
2026-04-25 18:11 61.87962 -6.38416 16529 ft 376 kts 103°
2026-04-25 18:12 61.87361 -6.32991 17117 ft 380 kts 103°
2026-04-25 18:12 61.86748 -6.27512 17722 ft 384 kts 103°
2026-04-25 18:12 61.86123 -6.21986 18335 ft 387 kts 103°
2026-04-25 18:12 61.85491 -6.16412 18897 ft 391 kts 103°
2026-04-25 18:13 61.84855 -6.10792 19432 ft 394 kts 103°
2026-04-25 18:13 61.84213 -6.05123 19984 ft 398 kts 103°
2026-04-25 18:13 61.83561 -5.99406 20547 ft 401 kts 104°
2026-04-25 18:14 61.82233 -5.87844 21620 ft 408 kts 104°
2026-04-25 18:14 61.81557 -5.81993 22137 ft 411 kts 104°
2026-04-25 18:14 61.80874 -5.76103 22646 ft 414 kts 104°
2026-04-25 18:14 61.80183 -5.70158 23198 ft 417 kts 104°
2026-04-25 18:15 61.79486 -5.64189 23726 ft 420 kts 104°
2026-04-25 18:15 61.78781 -5.58172 24185 ft 423 kts 104°
2026-04-25 18:15 61.78070 -5.52115 24620 ft 426 kts 104°
2026-04-25 18:15 61.77352 -5.46020 25062 ft 428 kts 104°
2026-04-25 18:16 61.76627 -5.39898 25477 ft 431 kts 104°
2026-04-25 18:16 61.75896 -5.33747 25892 ft 433 kts 104°
2026-04-25 18:16 61.74405 -5.21370 26718 ft 438 kts 105°
2026-04-25 18:17 61.73648 -5.15130 27107 ft 440 kts 105°
2026-04-25 18:17 61.72887 -5.08864 27497 ft 442 kts 105°
2026-04-25 18:17 61.72121 -5.02566 27883 ft 444 kts 105°
2026-04-25 18:17 61.71348 -4.96244 28272 ft 447 kts 105°
2026-04-25 18:18 61.70564 -4.89873 28570 ft 451 kts 104°
2026-04-25 18:18 61.69770 -4.83446 28900 ft 454 kts 105°
2026-04-25 18:18 61.68968 -4.76990 29245 ft 457 kts 105°
2026-04-25 18:19 61.67381 -4.64243 29344 ft 440 kts 105°
2026-04-25 18:19 61.65826 -4.51888 29341 ft 435 kts 105°
2026-04-25 18:20 61.64264 -4.39605 29343 ft 435 kts 105°
2026-04-25 18:20 61.62705 -4.27413 29340 ft 434 kts 105°
2026-04-25 18:21 61.61112 -4.15048 29338 ft 437 kts 105°
2026-04-25 18:21 61.59513 -4.02722 29336 ft 437 kts 105°
2026-04-25 18:22 61.57902 -3.90402 29334 ft 438 kts 105°
2026-04-25 18:22 61.56279 -3.78088 29341 ft 438 kts 105°
2026-04-25 18:23 61.54634 -3.65789 29339 ft 438 kts 105°
2026-04-25 18:23 61.52983 -3.53495 29345 ft 438 kts 105°
2026-04-25 18:24 61.51322 -3.41188 29339 ft 440 kts 105°
2026-04-25 18:24 61.49646 -3.28864 29330 ft 441 kts 105°
2026-04-25 18:25 61.47956 -3.16506 29331 ft 442 kts 105°
2026-04-25 18:25 61.46255 -3.04164 29334 ft 442 kts 105°
2026-04-25 18:26 61.44819 -2.93909 29338 ft 442 kts 105°
2026-04-25 18:26 61.43088 -2.81578 29344 ft 442 kts 105°
2026-04-25 18:27 61.41348 -2.69241 29337 ft 444 kts 105°
2026-04-25 18:27 61.39583 -2.56874 29329 ft 445 kts 105°
2026-04-25 18:27 61.38390 -2.48552 29339 ft 460 kts 105°
2026-04-25 18:28 61.37766 -2.44194 29339 ft 468 kts 105°
2026-04-25 18:28 61.36820 -2.37616 29339 ft 479 kts 105°
2026-04-25 18:28 61.35850 -2.30913 29338 ft 488 kts 105°
2026-04-25 18:29 61.33843 -2.17141 29334 ft 503 kts 106°
2026-04-25 18:29 61.32819 -2.10151 29334 ft 505 kts 106°
2026-04-25 18:30 61.28677 -1.82140 29329 ft 507 kts 105°
2026-04-25 18:30 61.26582 -1.68153 29329 ft 507 kts 106°
2026-04-25 18:31 61.24462 -1.54179 29330 ft 507 kts 106°
2026-04-25 18:31 61.22333 -1.40225 29331 ft 507 kts 106°
2026-04-25 18:32 61.20194 -1.26268 29330 ft 508 kts 105°
2026-04-25 18:32 61.18039 -1.12288 29318 ft 509 kts 105°
2026-04-25 18:33 61.15863 -0.98319 29314 ft 510 kts 106°
2026-04-25 18:33 61.13661 -0.84367 29314 ft 510 kts 106°
2026-04-25 18:34 61.11444 -0.70408 29315 ft 510 kts 106°
2026-04-25 18:34 61.09215 -0.56479 29317 ft 511 kts 106°
2026-04-25 18:35 61.06986 -0.42638 29315 ft 511 kts 106°
2026-04-25 18:35 61.04730 -0.28740 29317 ft 511 kts 107°
2026-04-25 18:36 61.02455 -0.14857 29309 ft 510 kts 107°
2026-04-25 18:36 60.99901 -0.01218 29339 ft 511 kts 116°
2026-04-25 18:37 60.95863 0.10873 29321 ft 514 kts 128°
2026-04-25 18:37 60.91411 0.22409 29307 ft 515 kts 128°
2026-04-25 18:38 60.86956 0.33937 29298 ft 515 kts 128°
2026-04-25 18:38 60.82494 0.45453 29302 ft 516 kts 128°
2026-04-25 18:39 60.78014 0.56941 29295 ft 516 kts 128°
2026-04-25 18:39 60.73521 0.68379 29310 ft 516 kts 128°
2026-04-25 18:40 60.69017 0.79805 29293 ft 517 kts 128°
2026-04-25 18:40 60.64501 0.91215 29286 ft 518 kts 128°
2026-04-25 18:41 60.59952 1.02606 29284 ft 518 kts 128°
2026-04-25 18:41 60.55396 1.13960 29283 ft 518 kts 128°
2026-04-25 18:42 60.51605 1.23380 29285 ft 518 kts 128°
2026-04-25 18:42 60.46259 1.36621 29574 ft 520 kts 128°
2026-04-25 18:43 60.43957 1.42291 29779 ft 522 kts 128°
2026-04-25 18:43 60.41652 1.47956 30103 ft 521 kts 128°
2026-04-25 18:43 60.39349 1.53611 30424 ft 520 kts 128°
2026-04-25 18:43 60.37053 1.59248 30706 ft 519 kts 128°
2026-04-25 18:44 60.34761 1.64862 30987 ft 518 kts 128°
2026-04-25 18:44 60.32463 1.70466 31274 ft 517 kts 128°
2026-04-25 18:44 60.30166 1.76048 31564 ft 517 kts 128°
2026-04-25 18:44 60.27871 1.81615 31854 ft 516 kts 128°
2026-04-25 18:45 60.25575 1.87165 32145 ft 515 kts 129°
2026-04-25 18:45 60.23282 1.92689 32435 ft 514 kts 129°
2026-04-25 18:45 60.20988 1.98202 32732 ft 514 kts 129°
2026-04-25 18:45 60.18696 2.03704 33036 ft 514 kts 128°
2026-04-25 18:46 60.16393 2.09226 33256 ft 515 kts 128°
2026-04-25 18:46 60.14087 2.14736 33513 ft 515 kts 129°
2026-04-25 18:46 60.11790 2.20216 33837 ft 513 kts 129°
2026-04-25 18:46 60.09494 2.25685 34155 ft 512 kts 129°
2026-04-25 18:47 60.07194 2.31143 34437 ft 511 kts 129°
2026-04-25 18:47 60.04898 2.36572 34712 ft 511 kts 129°
2026-04-25 18:47 60.02605 2.41989 34996 ft 510 kts 129°
2026-04-25 18:47 60.00314 2.47387 35284 ft 509 kts 129°
2026-04-25 18:48 59.98030 2.52758 35574 ft 508 kts 129°
2026-04-25 18:48 59.95741 2.58132 35860 ft 507 kts 129°
2026-04-25 18:48 59.93457 2.63478 36135 ft 506 kts 129°
2026-04-25 18:48 59.91171 2.68816 36369 ft 507 kts 129°
2026-04-25 18:49 59.88888 2.74150 36746 ft 502 kts 129°
2026-04-25 18:49 59.86634 2.79406 37176 ft 495 kts 129°
2026-04-25 18:49 59.82191 2.89714 37258 ft 487 kts 129°
2026-04-25 18:50 59.77776 2.99884 37254 ft 486 kts 129°
2026-04-25 18:50 59.73360 3.10021 37255 ft 485 kts 129°
2026-04-25 18:51 59.69688 3.18427 37251 ft 485 kts 129°
2026-04-25 18:51 59.64509 3.30199 37274 ft 486 kts 129°
2026-04-25 18:52 59.60051 3.40277 37238 ft 488 kts 129°
2026-04-25 18:52 59.55583 3.50372 37234 ft 489 kts 129°
2026-04-25 18:53 59.51136 3.60382 37234 ft 489 kts 129°
2026-04-25 18:53 59.46642 3.70424 37244 ft 489 kts 129°
2026-04-25 18:54 59.39879 3.85428 37267 ft 489 kts 129°
2026-04-25 18:55 59.35369 3.95418 37251 ft 490 kts 129°
2026-04-25 18:55 59.30857 4.05364 37237 ft 491 kts 129°
2026-04-25 18:56 59.26309 4.15314 37227 ft 491 kts 129°
2026-04-25 18:56 59.21745 4.25261 37224 ft 491 kts 129°
2026-04-25 18:57 59.17183 4.35178 37235 ft 491 kts 129°
2026-04-25 18:57 59.12619 4.45081 37231 ft 491 kts 129°
2026-04-25 18:58 59.08037 4.54964 37217 ft 492 kts 129°
2026-04-25 18:58 59.01127 4.69761 37190 ft 494 kts 129°
2026-04-25 18:59 58.91854 4.89477 37174 ft 495 kts 129°
2026-04-25 19:00 58.84883 5.04190 37209 ft 495 kts 129°
2026-04-25 19:01 58.77884 5.18863 37162 ft 496 kts 129°
2026-04-25 19:01 58.73209 5.28657 37160 ft 497 kts 129°
2026-04-25 19:02 58.66168 5.43322 37152 ft 498 kts 129°
2026-04-25 19:03 58.60640 5.54697 37137 ft 498 kts 129°
2026-04-25 19:03 58.54369 5.67558 37145 ft 498 kts 129°
2026-04-25 19:04 58.47252 5.82067 37143 ft 499 kts 130°
2026-04-25 19:05 58.37740 6.01351 37159 ft 499 kts 130°
2026-04-25 19:06 58.32967 6.10964 37141 ft 499 kts 130°
2026-04-25 19:06 58.25783 6.25335 37133 ft 502 kts 130°
2026-04-25 19:07 58.18544 6.39738 37135 ft 504 kts 130°
2026-04-25 19:08 58.11260 6.54115 37134 ft 505 kts 130°
2026-04-25 19:09 58.03128 6.70095 37136 ft 505 kts 130°
2026-04-25 19:10 57.94999 6.85945 37135 ft 507 kts 130°
2026-04-25 19:10 57.90076 6.95486 37128 ft 508 kts 130°
2026-04-25 19:11 57.85152 7.04993 37127 ft 509 kts 130°
2026-04-25 19:11 57.80212 7.14494 37123 ft 509 kts 130°
2026-04-25 19:12 57.75253 7.23976 37122 ft 509 kts 130°
2026-04-25 19:12 57.70283 7.33460 37059 ft 511 kts 130°
2026-04-25 19:13 57.65291 7.42953 37095 ft 513 kts 130°
2026-04-25 19:13 57.60315 7.52368 37111 ft 513 kts 130°
2026-04-25 19:14 57.55288 7.61830 37117 ft 513 kts 130°
2026-04-25 19:14 57.50261 7.71254 37110 ft 513 kts 131°
2026-04-25 19:15 57.45227 7.80659 37170 ft 513 kts 130°
2026-04-25 19:15 57.40230 7.90124 37036 ft 509 kts 124°
2026-04-25 19:16 57.35811 8.00363 37086 ft 510 kts 123°
2026-04-25 19:16 57.33619 8.05493 36899 ft 506 kts 123°
2026-04-25 19:16 57.31440 8.10579 36388 ft 504 kts 123°
2026-04-25 19:16 57.29257 8.15649 35811 ft 504 kts 123°
2026-04-25 19:17 57.27069 8.20713 35280 ft 503 kts 123°
2026-04-25 19:17 57.24884 8.25754 35053 ft 503 kts 123°
2026-04-25 19:17 57.22695 8.30801 35090 ft 505 kts 123°
2026-04-25 19:18 57.18280 8.40967 35072 ft 510 kts 122°
2026-04-25 19:18 57.13811 8.51188 35081 ft 513 kts 123°
2026-04-25 19:19 57.09327 8.61389 35074 ft 513 kts 123°
2026-04-25 19:19 57.04843 8.71555 35068 ft 512 kts 123°
2026-04-25 19:20 57.01077 8.80054 35076 ft 512 kts 123°
2026-04-25 19:20 56.95829 8.91822 35070 ft 513 kts 123°
2026-04-25 19:21 56.91317 9.01938 35056 ft 513 kts 123°
2026-04-25 19:21 56.84538 9.17129 35052 ft 515 kts 123°
2026-04-25 19:22 56.79976 9.27224 35062 ft 516 kts 124°
2026-04-25 19:23 56.73128 9.42283 35076 ft 517 kts 124°
2026-04-25 19:23 56.66201 9.57488 35046 ft 519 kts 124°
2026-04-25 19:24 56.61635 9.67450 34745 ft 518 kts 124°
2026-04-25 19:24 56.57025 9.77455 34261 ft 515 kts 124°
2026-04-25 19:25 56.52522 9.87166 33871 ft 513 kts 123°
2026-04-25 19:25 56.50224 9.92116 33385 ft 513 kts 123°
2026-04-25 19:25 56.47931 9.97049 32791 ft 512 kts 123°
2026-04-25 19:26 56.45632 10.01984 32203 ft 512 kts 123°
2026-04-25 19:26 56.43341 10.06896 31574 ft 512 kts 122°
2026-04-25 19:26 56.41046 10.11805 31071 ft 510 kts 123°
2026-04-25 19:26 56.38756 10.16686 30500 ft 510 kts 123°
2026-04-25 19:27 56.36465 10.21560 29917 ft 509 kts 123°
2026-04-25 19:27 56.34947 10.24782 29526 ft 508 kts 123°
2026-04-25 19:27 56.31900 10.31230 28825 ft 503 kts 123°
2026-04-25 19:27 56.29635 10.36011 28303 ft 500 kts 123°
2026-04-25 19:28 56.27376 10.40775 27766 ft 501 kts 122°
2026-04-25 19:28 56.25116 10.45544 27272 ft 499 kts 122°
2026-04-25 19:28 56.22865 10.50283 26746 ft 499 kts 122°
2026-04-25 19:28 56.20611 10.55021 26224 ft 498 kts 122°
2026-04-25 19:29 56.18358 10.59745 25682 ft 498 kts 123°
2026-04-25 19:29 56.16102 10.64461 25228 ft 496 kts 123°
2026-04-25 19:29 56.13853 10.69153 24644 ft 498 kts 123°
2026-04-25 19:29 56.11609 10.73828 24383 ft 491 kts 123°
2026-04-25 19:30 56.09381 10.78457 23925 ft 489 kts 124°
2026-04-25 19:30 56.07169 10.83041 23560 ft 486 kts 124°
2026-04-25 19:30 56.04965 10.87601 23104 ft 483 kts 124°
2026-04-25 19:30 56.02775 10.92126 22660 ft 480 kts 124°
2026-04-25 19:31 56.00597 10.96616 22209 ft 476 kts 124°
2026-04-25 19:31 55.98444 11.01049 21773 ft 473 kts 124°
2026-04-25 19:31 55.96306 11.05438 21022 ft 466 kts 125°
2026-04-25 19:31 55.94191 11.09769 20201 ft 460 kts 125°
2026-04-25 19:32 55.92097 11.14046 19403 ft 454 kts 125°
2026-04-25 19:32 55.90030 11.18260 18641 ft 449 kts 125°
2026-04-25 19:32 55.87990 11.22416 17818 ft 443 kts 126°
2026-04-25 19:32 55.86656 11.25132 17328 ft 437 kts 126°
2026-04-25 19:33 55.84019 11.30491 16582 ft 420 kts 126°
2026-04-25 19:33 55.82121 11.34339 16098 ft 409 kts 126°
2026-04-25 19:33 55.80268 11.38095 15573 ft 398 kts 126°
2026-04-25 19:33 55.78639 11.41952 14899 ft 386 kts 116°
2026-04-25 19:34 55.77188 11.46027 13930 ft 390 kts 115°
2026-04-25 19:34 55.75762 11.50111 13000 ft 388 kts 116°
2026-04-25 19:34 55.74359 11.54157 12245 ft 380 kts 116°
2026-04-25 19:34 55.72990 11.58096 11578 ft 371 kts 117°
2026-04-25 19:35 55.71649 11.61936 10933 ft 361 kts 118°
2026-04-25 19:35 55.70373 11.65567 10654 ft 341 kts 118°
2026-04-25 19:35 55.69141 11.69055 10219 ft 329 kts 118°
2026-04-25 19:35 55.67947 11.72446 9665 ft 319 kts 118°
2026-04-25 19:36 55.66778 11.75751 8901 ft 306 kts 118°
2026-04-25 19:36 55.65664 11.78883 8209 ft 295 kts 117°
2026-04-25 19:36 55.64595 11.81908 7854 ft 284 kts 117°
2026-04-25 19:36 55.63550 11.84875 7360 ft 291 kts 116°
2026-04-25 19:37 55.62469 11.87953 6890 ft 296 kts 116°
2026-04-25 19:37 55.61377 11.91040 6564 ft 295 kts 116°
2026-04-25 19:37 55.60288 11.94104 6234 ft 294 kts 116°
2026-04-25 19:37 55.59203 11.97149 5894 ft 293 kts 116°
2026-04-25 19:38 55.58117 12.00182 5583 ft 291 kts 117°
2026-04-25 19:38 55.57033 12.03192 5258 ft 289 kts 117°
2026-04-25 19:38 55.55955 12.06185 4947 ft 288 kts 117°
2026-04-25 19:38 55.54900 12.09180 4623 ft 286 kts 115°
2026-04-25 19:39 55.53888 12.12144 4297 ft 284 kts 115°
2026-04-25 19:39 55.52877 12.15124 4054 ft 281 kts 115°
2026-04-25 19:39 55.51874 12.18089 4026 ft 280 kts 115°
2026-04-25 19:39 55.50893 12.20961 3929 ft 265 kts 115°
2026-04-25 19:40 55.49962 12.23654 3665 ft 252 kts 115°
2026-04-25 19:40 55.49132 12.26287 3198 ft 245 kts 108°
2026-04-25 19:40 55.48487 12.29087 2659 ft 240 kts 100°
2026-04-25 19:40 55.48076 12.31920 2152 ft 238 kts 96°
2026-04-25 19:41 55.47724 12.34735 2013 ft 240 kts 95°
2026-04-25 19:41 55.47364 12.37608 2009 ft 229 kts 92°
2026-04-25 19:41 55.47370 12.40243 2014 ft 205 kts 68°
2026-04-25 19:41 55.47484 12.41022 2014 ft 199 kts 62°
2026-04-25 19:42 55.48643 12.44095 2023 ft 171 kts 32°
2026-04-25 19:42 55.49534 12.45460 2011 ft 168 kts 32°
2026-04-25 19:42 55.50415 12.46807 2016 ft 167 kts 32°
2026-04-25 19:42 55.51289 12.48147 2000 ft 166 kts 32°
2026-04-25 19:43 55.52157 12.49479 1863 ft 166 kts 32°
2026-04-25 19:43 55.53016 12.50801 1673 ft 159 kts 31°
2026-04-25 19:43 55.53803 12.52020 1468 ft 140 kts 31°
2026-04-25 19:43 55.54507 12.53104 1284 ft 130 kts 30°
2026-04-25 19:44 55.55179 12.54133 1113 ft 127 kts 30°
2026-04-25 19:44 55.55840 12.55138 928 ft 126 kts 30°
2026-04-25 19:44 55.56519 12.56146 788 ft 128 kts 30°
2026-04-25 19:44 55.57177 12.57242 603 ft 131 kts 33°
2026-04-25 19:45 55.57867 12.58270 415 ft 131 kts 33°
2026-04-25 19:45 55.58563 12.59328 261 ft 132 kts 34°
2026-04-25 19:45 55.59256 12.60407 68 ft 133 kts 33°
2026-04-25 19:45 55.59895 12.61376 23 ft 103 kts 38°
2026-04-25 19:46 55.60303 12.62009 24 ft 57 kts 41°
2026-04-25 19:46 55.60565 12.62314 26 ft 40 kts 17°
2026-04-25 19:46 55.60709 12.62369 24 ft 7 kts 11°
2026-04-25 19:46 55.60771 12.62400 24 ft 11 kts 18°
2026-04-25 19:47 55.60847 12.62482 26 ft 15 kts 43°
2026-04-25 19:47 55.60932 12.62616 24 ft 18 kts 40°
2026-04-25 19:47 55.61037 12.62773 25 ft 21 kts 40°
2026-04-25 19:47 55.61156 12.62961 24 ft 24 kts 41°
2026-04-25 19:48 55.61293 12.63167 25 ft 27 kts 39°
2026-04-25 19:48 55.61410 12.63353 24 ft 18 kts 40°
2026-04-25 19:48 55.61512 12.63511 25 ft 21 kts 40°
2026-04-25 19:48 55.61631 12.63695 24 ft 24 kts 41°
2026-04-25 19:49 55.61765 12.63902 24 ft 22 kts 41°
2026-04-25 19:49 55.61802 12.63959 25 ft 22 kts 40°
2026-04-25 19:49 55.62013 12.64184 24 ft 14 kts 25°
2026-04-25 19:49 55.62111 12.64267 24 ft 17 kts 25°
2026-04-25 19:50 55.62370 12.64437 25 ft 23 kts 16°
2026-04-25 19:50 55.62488 12.64481 24 ft 15 kts 358°
2026-04-25 19:50 55.62545 12.64500 24 ft 9 kts 18°
2026-04-25 19:51 55.62563 12.64509 24 ft 0 kts 17°
2026-04-25 19:51 55.62564 12.64509 24 ft 0 kts 17°